{"data":{"norad_id":63602,"epoch":"2026-05-25T03:33:16.714368Z","epoch_age_seconds":58777,"freshness":"FRESH","line1":"1 63602U 25078D   26145.14811012 -.00000009  00000+0  49880-4 0  9997","line2":"2 63602  99.6929 152.7296 0001188  90.5133 269.6141 13.57246704 54405","mean_motion":13.57246704,"eccentricity":0.0001188,"inclination_deg":99.6929,"raan_deg":152.7296,"arg_perigee_deg":90.5133,"mean_anomaly_deg":269.6141,"bstar":4.988e-5,"rev_number":5440,"period_min":106.0971447384,"perigee_km":1044.8331414665,"apogee_km":1046.5970487243,"semimajor_km":7423.8520950954,"source":"CELESTRAK","updated_at":"2026-05-25T13:38:03.845717Z"}}